FW5887 Weather Reports


Display with metric or nautical units.
time (UTC)temp
F
wind
direction
speed
MPH
gust
MPH
rain 1hr
in
rain 24hr
in
rain mn
in
humidity
%
barometer
mb
20260510060809 52 210 1.0 1.0 0.00 0.16 0.00 89 1010.0
20260510055744 52 230 1.0 4.0 0.00 0.16 0.00 89 1009.7
20260510054732 52 207 0.0 0.0 0.00 0.16 0.00 89 1009.5
20260510053728 52 197 0.0 3.0 0.00 0.16 0.00 89 1009.4
20260510051617 52 202 1.0 4.0 0.00 0.16 0.00 88 1009.4
20260510050605 52 240 0.0 4.0 0.00 0.16 0.00 88 1009.8
20260510045541 53 217 0.0 1.0 0.00 0.16 0.00 87 1009.6
20260510044524 53 75 2.0 6.0 0.00 0.16 0.00 87 1009.4
20260510042357 53 153 2.0 7.0 0.00 0.16 0.00 87 1009.4
20260510041341 53 136 2.0 8.0 0.00 0.16 0.00 87 1009.5
20260510040359 53 150 2.0 9.0 0.00 0.16 0.00 87 1009.7
20260510035333 53 143 2.0 9.0 0.00 0.16 0.17 87 1009.6
20260510033223 52 221 1.0 5.0 0.00 0.16 0.17 87 1009.4
20260510032159 53 125 1.0 5.0 0.00 0.16 0.17 87 1009.6
20260510031225 53 95 1.0 3.0 0.00 0.16 0.17 87 1009.7
20260510030235 53 167 1.0 4.0 0.00 0.16 0.17 87 1009.7
20260510025204 52 180 2.0 8.0 0.00 0.16 0.17 88 1009.6
20260510024158 52 186 1.0 6.0 0.00 0.16 0.17 89 1009.7
20260510021117 52 158 0.0 0.0 0.00 0.16 0.17 90 1009.8
20260510020111 52 210 0.0 0.0 0.00 0.16 0.17 91 1009.6
20260510015101 51 221 0.0 1.0 0.00 0.16 0.17 92 1009.6
20260510014109 51 145 0.0 0.0 0.00 0.16 0.17 92 1009.6
20260510011946 51 231 0.0 0.0 0.00 0.16 0.17 92 1010.0
20260510011005 52 231 0.0 0.0 0.00 0.16 0.17 91 1009.8
20260510005934 52 231 0.0 0.0 0.00 0.16 0.17 91 1009.8
20260510003834 52 198 0.0 0.0 0.00 0.16 0.17 91 1009.7
20260510002803 52 182 0.0 0.0 0.00 0.16 0.17 91 1009.6
20260510001823 52 181 0.0 0.0 0.00 0.16 0.17 91 1009.5
20260510000820 52 143 0.0 0.0 0.00 0.16 0.17 91 1009.3
20260509235755 52 212 0.0 0.0 0.00 0.16 0.17 90 1009.5
20260509233620 53 220 0.0 0.0 0.00 0.16 0.17 90 1009.2
20260509232551 53 192 0.0 1.0 0.00 0.16 0.17 90 1009.0
20260509231607 53 206 0.0 0.0 0.00 0.16 0.17 90 1009.0
20260509230556 53 193 0.0 0.0 0.00 0.16 0.17 90 1009.0
20260509225609 53 136 0.0 3.0 0.00 0.16 0.17 90 1009.0
20260509224550 53 181 0.0 6.0 0.00 0.16 0.17 89 1009.0
20260509223552 53 147 1.0 6.0 0.00 0.16 0.17 89 1008.9
20260509222613 53 155 1.0 4.0 0.00 0.16 0.17 90 1009.0
20260509221557 52 172 0.0 3.0 0.00 0.16 0.17 90 1009.1
20260509220620 52 197 0.0 0.0 0.00 0.16 0.17 91 1009.3
20260509215617 52 152 0.0 3.0 0.00 0.16 0.17 91 1009.4
20260509214615 52 147 1.0 4.0 0.00 0.16 0.17 91 1009.4
20260509213547 52 157 0.0 5.0 0.00 0.16 0.17 92 1009.6
20260509212528 51 187 1.0 5.0 0.00 0.16 0.17 92 1009.6
20260509211548 51 141 0.0 5.0 0.00 0.16 0.17 93 1009.8
20260509210602 51 157 0.0 3.0 0.00 0.16 0.17 93 1009.9
20260509205624 51 107 0.0 2.0 0.00 0.16 0.17 93 1009.9
20260509204612 51 154 0.0 3.0 0.00 0.16 0.17 93 1010.1
20260509203635 51 80 0.0 0.0 0.00 0.16 0.17 94 1010.2
20260509202602 51 231 0.0 0.0 0.00 0.16 0.17 94 1010.4
20260509195419 50 255 0.0 0.0 0.00 0.16 0.17 93 1010.5
20260509193240 50 212 0.0 0.0 0.00 0.16 0.17 93 1010.6
20260509192248 50 213 0.0 1.0 0.00 0.16 0.17 93 1010.6
20260509191235 50 182 0.0 2.0 0.00 0.16 0.17 93 1010.7
20260509190243 50 146 0.0 0.0 0.00 0.16 0.17 93 1010.8
20260509185256 50 210 0.0 0.0 0.00 0.16 0.17 93 1010.8
20260509183205 50 242 0.0 0.0 0.00 0.16 0.17 92 1010.9
20260509182154 50 226 0.0 1.0 0.00 0.16 0.16 92 1011.0
20260509181150 50 206 0.0 0.0 0.00 0.16 0.16 92 1011.0
20260509180122 50 214 0.0 0.0 0.00 0.16 0.16 91 1011.0
20260509175132 51 170 0.0 3.0 0.00 0.16 0.16 90 1010.9
20260509174133 52 273 0.0 2.0 0.00 0.16 0.16 92 1011.1
20260509173129 51 188 1.0 3.0 0.00 0.16 0.16 95 1011.1
20260509172055 49 182 0.0 3.0 0.00 0.16 0.16 96 1011.2
20260509171025 49 346 0.0 1.0 0.00 0.16 0.16 93 1011.4
20260509170039 49 257 0.0 0.0 0.00 0.16 0.16 95 1011.5
20260509163842 48 283 0.0 0.0 0.04 0.14 0.15 93 1011.9
20260509162901 48 108 0.0 0.0 0.04 0.14 0.15 94 1012.0
20260509161839 48 109 0.0 0.0 0.08 0.13 0.13 93 1012.0
20260509160852 48 212 0.0 0.0 0.06 0.13 0.13 93 1012.2
20260509154733 47 72 0.0 0.0 0.10 0.09 0.10 93 1012.4
20260509153706 47 78 0.0 0.0 0.16 0.09 0.09 92 1012.4
20260509152701 47 70 0.0 0.0 0.09 0.06 0.06 92 1012.6
20260509151701 46 69 0.0 0.0 0.06 0.04 0.05 91 1012.6
20260509150636 46 63 0.0 0.0 0.06 0.04 0.04 89 1012.7
20260509145617 46 323 0.0 0.0 0.00 0.02 0.03 88 1012.8
20260509144609 46 292 0.0 0.0 0.00 0.02 0.02 87 1012.8
20260509143549 45 349 0.0 0.0 0.00 0.01 0.01 87 1012.7
20260509142557 45 348 0.0 0.0 0.00 0.01 0.01 86 1012.7
20260509140422 46 307 0.0 0.0 0.00 0.00 0.00 81 1012.8
20260509134230 45 325 0.0 0.0 0.00 0.00 0.00 75 1012.6
20260509133244 46 327 0.0 0.0 0.00 0.00 0.00 77 1012.7
20260509132234 45 342 0.0 0.0 0.00 0.00 0.00 75 1012.6
20260509131234 46 309 0.0 0.0 0.00 0.00 0.00 76 1012.6
20260509130208 45 295 0.0 0.0 0.00 0.00 0.00 76 1012.5
20260509125210 46 284 0.0 0.0 0.00 0.00 0.00 76 1012.6
20260509124225 46 297 0.0 0.0 0.00 0.00 0.00 74 1012.6
20260509123219 47 319 0.0 0.0 0.00 0.00 0.00 75 1012.7
20260509122238 47 311 0.0 0.0 0.00 0.00 0.00 74 1012.7
20260509121245 47 303 0.0 0.0 0.00 0.00 0.00 74 1012.8
20260509120225 47 302 0.0 0.0 0.00 0.00 0.00 72 1012.9
20260509115224 47 89 0.0 0.0 0.00 0.00 0.00 72 1013.0
20260509114210 46 76 0.0 0.0 0.00 0.00 0.00 73 1013.0
20260509113158 45 72 0.0 0.0 0.00 0.00 0.00 77 1013.0
20260509104913 40 306 0.0 0.0 0.00 0.00 0.00 83 1013.1
20260509102833 39 306 0.0 0.0 0.00 0.00 0.00 86 1013.1
20260509101858 39 239 0.0 0.0 0.00 0.00 0.00 86 1013.0
20260509100826 38 220 0.0 0.0 0.00 0.00 0.00 87 1012.9
20260509095816 37 220 0.0 0.0 0.00 0.00 0.00 90 1012.9
20260509094804 36 220 0.0 0.0 0.00 0.00 0.00 91 1012.9
20260509093811 36 220 0.0 0.0 0.00 0.00 0.00 93 1012.9
20260509092741 36 220 0.0 0.0 0.00 0.00 0.00 93 1012.9
20260509090530 35 116 0.0 0.0 0.00 0.00 0.00 94 1012.9
20260509085508 34 116 0.0 0.0 0.00 0.00 0.00 93 1012.7
20260509084440 34 116 0.0 0.0 0.00 0.00 0.00 93 1012.7
20260509083410 34 116 0.0 0.0 0.00 0.00 0.00 93 1012.7
20260509082406 33 116 0.0 0.0 0.00 0.00 0.00 92 1012.6
20260509081416 33 114 0.0 0.0 0.00 0.00 0.00 92 1012.6
20260509080416 34 114 0.0 0.0 0.00 0.00 0.00 91 1012.6
20260509075402 34 114 0.0 0.0 0.00 0.00 0.00 91 1012.5
20260509074356 34 114 0.0 0.0 0.00 0.00 0.00 90 1012.6
20260509072205 35 114 0.0 0.0 0.00 0.00 0.00 89 1012.7
20260509070034 35 252 0.0 0.0 0.00 0.00 0.00 90 1012.7
20260509065053 35 252 0.0 0.0 0.00 0.00 0.00 90 1012.9
20260509064020 36 252 0.0 0.0 0.00 0.00 0.00 88 1013.0
20260509063007 36 252 0.0 0.0 0.00 0.00 0.00 84 1013.1